Regional Weather Roundup
Issued by NWS Newport/Morehead, NC

Current Version | Previous Version | Text Only | Print | Product List | Glossary On
Versions: 1 2 3 4 5 6 7 8 9 10 11 12 13 14 15 16 17 18 19 20 21 22 23 24 25 26 27 28 29 30 31 32 33 34 35 36 37 38 39 40 41 42 43 44 45 46 47 48 49 50
000
ASUS42 KMHX 270725
RWRMHX
WEATHER ROUNDUP FOR EASTERN NORTH CAROLINA
NATIONAL WEATHER SERVICE NEWPORT/MOREHEAD CITY NC
300 AM EDT SAT AUG 27 2016

NOTE: "FAIR" INDICATES FEW OR NO CLOUDS BELOW 12,000 FEET
WITH NO SIGNIFICANT WEATHER AND/OR OBSTRUCTIONS TO VISIBILITY

NCZ015>017-031-032-045>047-102-103-270800-
NORTH COAST

CITY           SKY/WX    TMP DP  RH WIND       PRES   REMARKS
EDENTON        CLEAR     81  73  78 SW3       30.09R
ELIZABETH CITY CLEAR     75  73  93 S3        30.08S
KITTY HAWK     SUNNY     78  76  93 SW5       30.07S
MANTEO         PTCLDY    78  74  87 W7        30.08S

$$

NCZ045>047-081-094-103-104-270800-
CENTRAL COAST

CITY           SKY/WX    TMP DP  RH WIND       PRES   REMARKS
FRISCO         CLEAR     80  71  74 SW5       30.08S

$$

NCZ095-097-098-100-101-270800-
SOUTHERN COAST

CITY           SKY/WX    TMP DP  RH WIND       PRES   REMARKS
BEAUFORT       CLEAR     74  72  93 CALM      30.08S
CEDAR ISLAND   NOT AVBL
JACKSONVILLE   CLEAR     73  70  90 CALM      30.08S
PINEY ISLAND   NOT AVBL
WILMINGTON     CLEAR     74  71  91 CALM      30.09S


$$

NCZ011>013-027>030-043-044-078>080-089-090>093-098-270800-
COASTAL PLAIN

CITY           SKY/WX    TMP DP  RH WIND       PRES   REMARKS
AHOSKIE        CLEAR     74  73  98 CALM      30.08S
CLINTON        CLEAR     73  73  98 CALM      30.10S
ELIZABETHTOWN  CLEAR     74  73  96 CALM      30.10S
GOLDSBORO      CLEAR     77  72  83 CALM      30.08S
GREENVILLE     CLEAR     77  73  88 CALM      30.10S
HAVELOCK       CLEAR     74  71  91 CALM      30.09S
KENANSVILLE    PTCLDY    72  70  94 CALM      30.10R
KINSTON        CLEAR     74  72  95 CALM      30.10R
NEW BERN       CLEAR     74  71  91 CALM      30.10S
RICHLANDS      CLEAR     71  70  96 CALM      30.10S
ROCKY MOUNT    CLEAR     76  75  97 S3        30.08S
WASHINGTON     CLEAR     75  72  91 CALM      30.09R
WHITEVILLE     CLEAR     73  71  94 CALM      30.09S

$$

AMZ130-135-150-152-154-156-158-170-250-252-270-ANZ085-086-088-633-658-670-270800-
MARINE OBSERVATIONS

STATION/POSITION TIME  TEMP    WIND        PRES    WAVE   SWELL
                       AIR SEA DIR/SP/G            HT/PER HT/PER
                 (UTC) (F)     (DEG/KT/KT) (MB)    (FT/S) (FT/S)
CHESAPEAKE LIGHT NOT AVBL
64 E VA BEACH    0650   80 80  240/ 10/ 12 1017.9    2/ 8   2/ 8
DUCK             0700   81 73  240/  9/ 12 1017.7
2 E DUCK         0711      79                N/A     2/11
OREGON INLET     0700   81 81  230/  8/  9 1018.3
13E OREGON INLT  0700      81                N/A     2/ 8   2/ 8
HATTERAS CG      0700   81 83  200/  3/  5 1018.3
DIAMOND BUOY     0650   81 85  190/  6/  6 1018.8    2/10   2/10
CAPE LOOKOUT     0700   80     190/  2/  3 1018.5
BEAUFORT LAB     0700   81 82  170/  4/  6 1018.1
30 SE NEW RVR IN 0708   82 84  150/  4/  8 1018.6
30 SE NEW RVR IN 0625      84                N/A     3/11   2/11
27 SE WRIGHTSVLE 0708   82 84  120/  4/  8 1018.8
5 SE WRIGHTSVLE  0708   81 83  150/  4/  6 1019.7
225 S CAPE HAT   0650   82 84   60/  8/ 10 1016.9    4/ 9   5/ 9
41 SE CHARLESTON 0650   82 84   60/  8/ 10 1017.3    3/11   3/11

$$




USA.gov is the U.S. government's official web portal to all federal, state and local government web resources and services.